Погода в Морозовске

Погода в Морозовске : погода сейчас, прогноз погоды и архив. Всё, что Вы хотите узнать о погоде в Морозовске!

Хотите узнать прогноз погоды в Морозовске? Тогда Вам сюда: Погода в Морозовске

Поиск расширенной информации на нашем сайте:

Другие новости

Новости СМИ2

Главная страница сайта

Новости сайта

02.10.2013

Напоминаем, что на нашем новом сайте вы можете получить высокодетализированные прогнозы погоды по пунктам России, СНГ и мира (включающие важные для авиации метеовеличины, такие как направление и скорость ветра, видимость, явления погоды, количество и форма облачности, нижняя и верхняя граница облачности), а также ознакомиться с разнообразными материалами по авиационной метеорологии и подборкой полезных ссылок на эту тему.

Сайт Метеоцентр.Азия посвящён разработке технологий оптимизации авиаметеорологического обслуживания, включая проектирование и перспективное создание нескольких автоматизированных авиаметеорологических систем:
- система выпуска высокодетальных прогностических карт явлений погоды для нижнего воздушного пространства по России и ближнему зарубежью;
- система верификации прогнозов TAF (выпускаемых синоптиками официальных АМСГ РФ и ближнего зарубежья) и AUTOTAF (выпускаемых сайтом Метеоцентр.Азия) - выявление ошибок, онлайн-сопоставление с фактической погодой METAR, автоматическое внесение коррективов в прогнозы при резком отклонении фактической погоды от прогноза, подсчёт оправдываемости прогнозов по элементам и в целом;
- система обработки, анализа и отображения авиаметеорологической информации для применения провайдерами метеорологической информации.


Погода в Морозовске - сегодня

Время (UTC), дата Ветер
(°,м/с) 
Видим.   Явления Облачность Т
(°С)
Тd
(°С)
f(%) Тe
(°С)
Pmin
(гПа)
dP
(гПа)
Po
(мм)
O2
(г/м3)
Тmin Tmax R s Состояние
почвы
09 25.06.17 290 (З) 20000 м    6/4 600 м средняя 
[Cu hum|As trans]
+22.7 +9.9 44 +24  1013.4  0.8  752  278           
12 25.06.17 340 (С) 20000 м    8/6 600 м средняя, верхняя 
[Cu hum|Ac trans|Ci fib]
+24.7 +10.3 40 +26  1013.2  -0.1  752  276           
15 25.06.17 320 (СЗ) 20000 м    10/8 600 м кучево-дожд., средняя 
[Cb calv|Ac As]
+13.8 100 +6  1013.3  752  300    +25.2       
18 25.06.17 340 (С) 20000 м    9/4 600 м кучево-дожд., средняя, верхняя 
[Cb calv|Ac trans|Ci fib]
+19.9 +15.2 74 +30  1014.1  0.7  753  280           
21 25.06.17 320 (СЗ) 20000 м    8/3 600 м кучево-дожд., средняя 
[Cb calv|Ac trans]
+19.1 +14.6 75 +28  1014.6  0.5  753  281           
00 26.06.17 320 (СЗ) 20000 м    3/0 средняя 
[Ac lent]
+17.3 +15.1 87 +27  1014.8  0.1  753  282           
03 26.06.17 тихо ()   20000 м    ясно 
+18.1 +15.7 86 +28  1015.1  0.3  753  281  +15.9        сухая 
06 26.06.17 230 (ЮЗ) 20000 м    3/0 верхняя 
[Ci fib]
+23.4 +17.3 69 +36  1015.2  0.3  754  276           
09 26.06.17 230 (ЮЗ) 20000 м    8/3 600 м верхняя 
[Cu med, cong|Ci fib]
+27.1 +14.7 47 +35  1014.6  -0.4  753  273           
12 26.06.17 тихо ()   20000 м    6/3 600 м верхняя 
[Cu med, cong|Ci fib]
+28.7 +13.9 40 +35  1014.1  -0.5  753  272           
15 26.06.17 250 (З) 20000 м    8/3 600 м верхняя 
[Cu hum|Ci fib]
+28.5 +15.7 46 +38  1013.3  -0.8  752  271    +29.6       
18 26.06.17 180 (Ю) 20000 м    ясно 
+22.4 +17.6 74 +36  1013.3  -0.2  752  276           
21 26.06.17 180 (Ю) 20000 м    ясно 
+19.7 +16.2 80 +32  1013.7  0.3  752  279           
00 27.06.17 180 (Ю) 20000 м    3/0 верхняя 
[Ci fib]
+17.5 +16.2 92 +29  1013.7  -0.1  752  281           
03 27.06.17 тихо ()   20000 м    ясно 
+20.7 +16.2 75 +31  1013.6  752  278  +16.4        сухая 
06 27.06.17 200 (Ю) 20000 м    3/0 верхняя 
[Ci fib]
+28 +17.6 53 +41  1012.9  -0.4  752  271           
09 27.06.17 230 (ЮЗ) 20000 м    8/8 600 м 
[Cu med, cong]
+30.3 +15.7 41 +40  1012.7  -0.2  752  269           
12 27.06.17 180 (Ю) 20000 м    8/8 600 м верхняя 
[Cu hum|Ci fib]
+30.9 +14.8 38 +39  1011.3  -1.3  751  269           
15 27.06.17 180 (Ю) 20000 м    4/3 600 м верхняя 
[Cu hum|Cc]
+30.3 +16.1 42 +41  1010.3  -1  750  269    +31.3       
18 27.06.17 180 (Ю) 20000 м    3/0 верхняя 
[Ci fib]
+22.2 +14 60 +29  1011.5  0.9  751  277           
21 27.06.17 200 (Ю) 20000 м    3/0 средняя 
[Ac trans]
+20.1 +13.1 64 +26  1011.2  -0.3  751  279           
00 28.06.17 тихо ()   20000 м    4/0 средняя 
[Ac trans]
+16.7 +13.7 82 +23  1011.5  0.1  751  282           
03 28.06.17 200 (Ю) 20000 м    3/0 средняя 
[Ac trans]
+20.1 +14.6 71 +28  1011.5  0.2  751  279  +15.8        сухая 
06 28.06.17 320 (СЗ) 20000 м    1/0 верхняя 
[Ci fib]
+27.5 +12.7 40 +32  1011.4  0.1  751  272           
09 28.06.17 320 (СЗ) 20000 м    8/6 600 м средняя 
[Cu med, cong|Ac trans]
+31.1 +15.1 38 +40  1011  -0.2  751  269           
Время (UTC), дата Ветер
(°,м/с) 
Видим.   Явления Облачность Т
(°С)
Тd
(°С)
f(%) Тe
(°С)
Pmin
(гПа)
dP
(гПа)
Po
(мм)
O2
(г/м3)
Тmin Tmax R s Состояние
почвы

Для получения пояснительной информации подведите курсор к названию столбца.

ПОГОДА в Морозовске - архив

Всё, что Вы хотите узнать о погоде в Морозовске - удобно и подробно!

Выберите нужную дату (начиная с 1 января 2015* года) и нажмите кнопку "Найти".
Будут отображены архивные сводки погоды по пункту Морозовск, начиная с указанной даты.


Отображать данные в формате CSV (для использования в таблицах Excel)


Внимание! Наш архив погоды предназначен исключительно для личного некоммерческого использования в познавательных целях. Если Вам необходимы официальные справки о состоянии погоды (для производственных, юридических, коммерческих и т.п. целей), обращайтесь в органы Росгидромета.

*Примечание: данная дата относится к архиву по метеостанциям СССР (Россия, СНГ, Балтия).
Архив по метеостанциям Зарубежной Европы и Азии (кроме Китая) хранится 10 дней, по другим регионам земного шара (Китай, Африка, Америка, Австралия, Океания) - 1 день.

Морозовск - район местоположения метеостанции


Название, широта, долгота, высота метеостанции:
Морозовск 48.3°ш. 41.9°д. 90 м над ур. моря [Российская Федерация]

Дополнительная информация

В oтличие oт бoльшинства пoгoдных сайтoв мы публикуем пoдрoбную метеoинфoрмацию в детальнoм прoфессиoнальнoм фoрмате.

Характеристики температуры и влажнoсти вoздуха измеряются на высoте 2 м в тени вдали oт зданий и деревьев.
Скoрoсть ветра измеряется на высoте 10 м (на урoвне рoста челoвека скoрoсть ветра ниже в 1.5-2 раза). Если метеoстанция нахoдится в гoрoде или в лесу, тo скoрoсть ветра занижена на 2-4 м/с пo сравнению с oткрытым местoм. Скoрoсть ветра над акватoриями крупных рек и oзёр, а также на вершинах хoлмoв на 2-5 м/с выше, чем в oбычных услoвиях.
Атмoсфернoе давление в разных тoчках местнoсти мoжет значительнo oтличаться oт давления на метеoстанции, в зависимoсти oт услoвий рельефа (при пoдъёме на 10 м давление пoнижается примернo на 1 мм рт.ст.).